• In United Kingdom
  • List of Countries
  • For 7 days
  • Water Temperature
  • Satellite Maps
  • Weather Map
  • Weather Widgets
  • user-avatar
    Login

    Hourly Weather Inhambane

    Today, 17 January, Wednesday

    Time Temperature Precipitation Wind Pressure Humidity
    00:00 +16°C° 0 mm 2 mps 724 mmHg 67%
    01:00 +16°C° 0 mm 2 mps 723 mmHg 66%
    02:00 +15°C° 0 mm 2 mps 723 mmHg 66%
    03:00 +15°C° 0 mm 2 mps 723 mmHg 66%
    04:00 +15°C° 0 mm 2 mps 723 mmHg 65%
    05:00 +14°C° 0 mm 2 mps 723 mmHg 64%
    06:00 +16°C° 0 mm 2 mps 723 mmHg 58%
    07:00 +17°C° 0 mm 2 mps 723 mmHg 52%
    08:00 +19°C° 0 mm 1 mps 724 mmHg 47%
    09:00 +21°C° 0 mm 1 mps 724 mmHg 40%
    10:00 +22°C° 0 mm 1 mps 724 mmHg 34%
    11:00 +23°C° 0 mm 1 mps 724 mmHg 27%
    12:00 +24°C° 0 mm 2 mps 723 mmHg 25%
    13:00 +25°C° 0 mm 3 mps 723 mmHg 22%
    14:00 +26°C° 0 mm 3 mps 723 mmHg 19%
    15:00 +25°C° 0 mm 3 mps 723 mmHg 22%
    16:00 +24°C° 0 mm 3 mps 723 mmHg 26%
    17:00 +22°C° 0 mm 3 mps 723 mmHg 30%
    18:00 +21°C° 0 mm 3 mps 723 mmHg 37%
    19:00 +20°C° 0 mm 3 mps 723 mmHg 44%
    20:00 +18°C° 0 mm 3 mps 723 mmHg 52%
    21:00 +18°C° 0 mm 2 mps 723 mmHg 56%
    22:00 +17°C° 0 mm 2 mps 723 mmHg 61%
    23:00 +17°C° 0 mm 2 mps 723 mmHg 65%

    Tomorrow, 18 January, Thursday

    Time Temperature Precipitation Wind Pressure Humidity
    00:00 +16°C° 0 mm 2 mps 723 mmHg 68%
    01:00 +16°C° 0 mm 2 mps 723 mmHg 70%
    02:00 +15°C° 0 mm 2 mps 723 mmHg 72%
    03:00 +15°C° 0 mm 2 mps 723 mmHg 73%
    04:00 +14°C° 0 mm 2 mps 723 mmHg 73%
    05:00 +14°C° 0 mm 2 mps 722 mmHg 73%
    06:00 +15°C° 0 mm 2 mps 723 mmHg 68%
    07:00 +16°C° 0 mm 2 mps 723 mmHg 62%
    08:00 +17°C° 0 mm 2 mps 724 mmHg 56%
    09:00 +18°C° 0 mm 2 mps 724 mmHg 51%
    10:00 +19°C° 0 mm 2 mps 724 mmHg 45%
    11:00 +21°C° 0 mm 2 mps 724 mmHg 39%
    12:00 +23°C° 0 mm 2 mps 724 mmHg 34%
    13:00 +23°C° 0 mm 2 mps 723 mmHg 29%
    14:00 +24°C° 0 mm 3 mps 723 mmHg 24%
    15:00 +24°C° 0 mm 3 mps 723 mmHg 25%
    16:00 +22°C° 0 mm 3 mps 723 mmHg 26%
    17:00 +22°C° 0 mm 4 mps 723 mmHg 26%
    18:00 +21°C° 0 mm 3 mps 723 mmHg 29%
    19:00 +19°C° 0 mm 3 mps 723 mmHg 33%
    20:00 +18°C° 0 mm 2 mps 723 mmHg 36%
    21:00 +17°C° 0 mm 2 mps 723 mmHg 36%
    22:00 +17°C° 0 mm 2 mps 723 mmHg 37%
    23:00 +16°C° 0 mm 2 mps 723 mmHg 37%

    Day after tomorrow, 19 January, Friday

    Time Temperature Precipitation Wind Pressure Humidity
    00:00 +16°C° 0 mm 2 mps 723 mmHg 36%
    01:00 +15°C° 0 mm 2 mps 723 mmHg 35%
    02:00 +13°C° 0 mm 3 mps 723 mmHg 35%
    03:00 +13°C° 0 mm 3 mps 723 mmHg 36%
    04:00 +12°C° 0 mm 3 mps 723 mmHg 37%
    05:00 +12°C° 0 mm 4 mps 723 mmHg 38%
    06:00 +13°C° 0 mm 4 mps 723 mmHg 36%
    07:00 +13°C° 0 mm 4 mps 724 mmHg 33%
    08:00 +14°C° 0 mm 4 mps 725 mmHg 31%
    09:00 +17°C° 0 mm 4 mps 725 mmHg 28%
    10:00 +18°C° 0 mm 4 mps 725 mmHg 25%
    11:00 +20°C° 0 mm 4 mps 725 mmHg 21%
    12:00 +21°C° 0 mm 4 mps 725 mmHg 19%
    13:00 +22°C° 0 mm 5 mps 725 mmHg 17%
    14:00 +23°C° 0 mm 5 mps 724 mmHg 15%
    15:00 +22°C° 0 mm 5 mps 724 mmHg 17%
    16:00 +21°C° 0 mm 5 mps 724 mmHg 18%
    17:00 +20°C° 0 mm 5 mps 725 mmHg 19%
    18:00 +19°C° 0 mm 4 mps 725 mmHg 25%
    19:00 +18°C° 0 mm 4 mps 726 mmHg 31%
    20:00 +15°C° 0 mm 4 mps 726 mmHg 37%
    21:00 +16°C° 0 mm 3 mps 726 mmHg 39%
    22:00 +14°C° 0 mm 3 mps 727 mmHg 42%
    23:00 +13°C° 0 mm 3 mps 727 mmHg 45%

    20 January, Saturday

    Time Temperature Precipitation Wind Pressure Humidity
    00:00 +13°C° 0 mm 3 mps 726 mmHg 47%
    01:00 +12°C° 0 mm 3 mps 726 mmHg 49%
    02:00 +12°C° 0 mm 3 mps 726 mmHg 51%
    03:00 +12°C° 0 mm 3 mps 726 mmHg 54%
    04:00 +11°C° 0 mm 3 mps 726 mmHg 57%
    05:00 +11°C° 0 mm 3 mps 726 mmHg 60%
    06:00 +12°C° 0 mm 3 mps 726 mmHg 58%
    07:00 +13°C° 0 mm 3 mps 727 mmHg 56%
    08:00 +14°C° 0 mm 3 mps 727 mmHg 54%
    09:00 +17°C° 0 mm 4 mps 727 mmHg 51%
    10:00 +18°C° 0 mm 4 mps 727 mmHg 47%
    11:00 +20°C° 0 mm 4 mps 727 mmHg 43%
    12:00 +21°C° 0 mm 5 mps 727 mmHg 42%
    13:00 +21°C° 0 mm 5 mps 726 mmHg 40%
    14:00 +22°C° 0 mm 6 mps 725 mmHg 38%
    15:00 +22°C° 0 mm 6 mps 725 mmHg 40%
    16:00 +21°C° 0 mm 6 mps 725 mmHg 43%
    17:00 +20°C° 0 mm 6 mps 725 mmHg 46%
    18:00 +19°C° 0 mm 5 mps 726 mmHg 51%
    19:00 +17°C° 0 mm 5 mps 726 mmHg 56%
    20:00 +17°C° 0 mm 4 mps 726 mmHg 61%
    21:00 +17°C° 0 mm 4 mps 726 mmHg 64%
    22:00 +15°C° 0 mm 4 mps 726 mmHg 66%
    23:00 +14°C° 0 mm 4 mps 726 mmHg 69%

    21 January, Sunday

    Time Temperature Precipitation Wind Pressure Humidity
    00:00 +14°C° 0 mm 3 mps 725 mmHg 70%
    01:00 +14°C° 0 mm 3 mps 725 mmHg 71%
    02:00 +13°C° 0 mm 3 mps 725 mmHg 72%
    03:00 +13°C° 0 mm 3 mps 724 mmHg 73%
    04:00 +13°C° 0 mm 3 mps 724 mmHg 73%
    05:00 +12°C° 0 mm 3 mps 724 mmHg 74%
    06:00 +14°C° 0 mm 3 mps 724 mmHg 69%
    07:00 +16°C° 0 mm 3 mps 725 mmHg 63%
    08:00 +17°C° 0 mm 3 mps 725 mmHg 58%
    09:00 +19°C° 0 mm 4 mps 725 mmHg 50%
    10:00 +21°C° 0 mm 4 mps 725 mmHg 42%
    11:00 +23°C° 0 mm 5 mps 725 mmHg 34%
    12:00 +25°C° 0 mm 5 mps 724 mmHg 32%
    13:00 +25°C° 0 mm 4 mps 723 mmHg 30%
    14:00 +26°C° 0 mm 4 mps 723 mmHg 29%
    15:00 +25°C° 0 mm 4 mps 723 mmHg 31%
    16:00 +23°C° 0 mm 4 mps 723 mmHg 34%
    17:00 +24°C° 0 mm 3 mps 723 mmHg 36%
    18:00 +21°C° 0 mm 3 mps 723 mmHg 41%
    19:00 +20°C° 0 mm 2 mps 723 mmHg 46%
    20:00 +19°C° 0 mm 2 mps 723 mmHg 52%
    21:00 +19°C° 0 mm 1 mps 723 mmHg 54%
    22:00 +18°C° 0 mm 1 mps 722 mmHg 57%
    23:00 +16°C° 0 mm 1 mps 722 mmHg 60%

    22 January, Monday

    Time Temperature Precipitation Wind Pressure Humidity
    00:00 +16°C° 0 mm 1 mps 722 mmHg 60%
    01:00 +15°C° 0 mm 0 mps 721 mmHg 61%
    02:00 +14°C° 0 mm 0 mps 721 mmHg 62%
    03:00 +14°C° 0 mm 0 mps 721 mmHg 62%
    04:00 +14°C° 0 mm 0 mps 721 mmHg 63%
    05:00 +13°C° 0 mm 0 mps 721 mmHg 63%
    06:00 +16°C° 0 mm 1 mps 721 mmHg 57%
    07:00 +19°C° 0 mm 1 mps 722 mmHg 50%
    08:00 +21°C° 0 mm 1 mps 722 mmHg 43%
    09:00 +23°C° 0 mm 1 mps 722 mmHg 38%
    10:00 +24°C° 0 mm 1 mps 722 mmHg 32%
    11:00 +26°C° 0 mm 2 mps 722 mmHg 27%
    12:00 +27°C° 0 mm 2 mps 721 mmHg 25%
    13:00 +28°C° 0 mm 3 mps 721 mmHg 24%
    14:00 +28°C° 0 mm 4 mps 720 mmHg 22%
    15:00 +28°C° 0 mm 4 mps 721 mmHg 23%
    16:00 +27°C° 0 mm 4 mps 721 mmHg 24%
    17:00 +26°C° 0 mm 4 mps 721 mmHg 26%
    18:00 +25°C° 0 mm 3 mps 721 mmHg 27%
    19:00 +22°C° 0 mm 3 mps 721 mmHg 28%
    20:00 +21°C° 0 mm 2 mps 722 mmHg 30%
    21:00 +20°C° 0 mm 2 mps 722 mmHg 29%
    22:00 +19°C° 0 mm 2 mps 722 mmHg 28%
    23:00 +18°C° 0 mm 2 mps 722 mmHg 27%
    Show more